Location: Ciserano
(45.5833°N, 9.6000°E)
Time: 09:41:46
(UTC+00:00)

Cosmos 1937 Rocket - Pass Details

Date: 29 November 2020
Orbit: 745 x 781 km, 74.0° (Epoch: 25 January)

Event Time Altitude Azimuth Distance (km) Brightness Sun altitude
Rises 05:02:07 0° 203° (SSW) 3,177 6.6 -16.5°
Reaches altitude 10° 05:04:27 10° 204° (SSW) 2,260 5.8 -16.1°
Maximum altitude 05:09:35 80° 291° (WNW) 769 3.4 -15.3°
Drops below altitude 10° 05:14:47 10° 19° (NNE) 2,295 6.0 -14.4°
Sets 05:17:11 0° 21° (NNE) 3,230 6.8 -14.0°
